Regional Weather Roundup
Issued by NWS

Home | Current Version | Previous Version | Text Only | Print | Product List | Glossary On
Versions: 1 2 3 4 5 6 7 8 9 10 11 12 13 14 15 16 17 18 19 20 21 22 23 24 25 26 27 28 29 30 31 32 33 34 35 36 37 38 39 40 41 42 43 44 45 46 47 48 49 50
000
ASUS43 KFSD 171410
RWRSD

WEATHER ROUNDUP FOR SOUTH DAKOTA
NATIONAL WEATHER SERVICE SIOUX FALLS SD
800 AM CST TUE JAN 17 2017

NOTE: "FAIR" INDICATES FEW OR NO CLOUDS BELOW 12,000 FEET WITH NO
SIGNIFICANT WEATHER AND/OR OBSTRUCTIONS TO VISIBILITY.


SDZ001>005-009-010-012>017-171500-
NORTHWEST AND NORTH CENTRAL SOUTH DAKOTA

CITY           SKY/WX    TMP DP  RH WIND       PRES   REMARKS
BUFFALO          N/A     21   9  59 SW10      29.83F WCI  10
FAITH            N/A     15   7  70 S13       29.94F WCI   1
MOBRIDGE       CLOUDY     8   2  76 SE5       29.95S WCI   0
$$

SDZ012>016-024>037-041>051-057-063-072>074-171500-
SOUTHWEST AND SOUTH CENTRAL SOUTH DAKOTA

CITY           SKY/WX    TMP DP  RH WIND       PRES   REMARKS
RAPID CTY ARPT CLOUDY    11   7  84 E3        29.94F
PIERRE         CLOUDY    11   6  81 SW10      30.00F WCI  -3
CUSTER         CLOUDY    21   4  47 SW7       29.91F WCI  12
ELLSWORTH AFB  CLOUDY    14   6  70 SW5       29.92F WCI   6
PHILIP         CLOUDY     8   5  87 W5        30.00F WCI   0
PINE RIDGE     CLOUDY     0  -4  83 CALM      30.00F
SPEARFISH      FAIR      19   7  58 SW6       29.91F WCI  11
WINNER         FAIR      19  14  81 SW7       30.03F WCI  10
$$

SDZ004>011-016>023-039-040-171500-
NORTHEAST SOUTH DAKOTA

CITY           SKY/WX    TMP DP  RH WIND       PRES   REMARKS
ABERDEEN       CLOUDY    -1  -5  82 SW6       30.00F WCI -13
WATERTOWN      CLOUDY     1  -3  83 S3        29.98S
BROOKINGS      CLOUDY     3  -1  83 CALM      30.00R
SISSETON         N/A      4   2  91 SW6       29.97F WCI  -7
$$

SDZ017-020-022-023-036>040-048>070-171500-
SOUTHEAST SOUTH DAKOTA

CITY           SKY/WX    TMP DP  RH WIND       PRES   REMARKS
SIOUX FALLS    CLOUDY    11   8  88 W5        30.03R WCI   3
HURON          CLOUDY     2   0  91 CALM      30.03F
CHAMBERLAIN    CLOUDY    14  11  89 W6        30.04F WCI   5
MITCHELL       CLOUDY    10   8  92 W6        30.06S WCI   0
YANKTON        CLOUDY    16  10  79 CALM      30.05F
$$

ABBREVIATIONS USED IN REMARKS
   TC - TEMPERATURE IN CELSIUS
  WCI - WIND CHILL INDEX
   HX - HEAT INDEX
  VSB - VISIBILITY




USA.gov is the U.S. government's official web portal to all federal, state and local government web resources and services.